Regional Weather Roundup
Issued by NWS

Home | Current Version | Previous Version | Graphics & Text | Print | Product List | Glossary On
Versions: 1 2 3 4 5 6 7 8 9 10 11 12 13 14 15 16 17 18 19 20 21 22 23 24 25 26 27 28
000
ASUS45 KCYS 221810
RWRWY

WYOMING REGIONAL WEATHER ROUNDUP
NATIONAL WEATHER SERVICE CHEYENNE WY
1100 AM MST WED NOV 22 2017

NOTE:  "FAIR" INDICATES FEW OR NO CLOUDS BELOW 12,000 FEET
WITH NO SIGNIFICANT WEATHER AND/OR OBSTRUCTIONS TO VISIBILITY.

WYZ001-221900-
YELLOWSTONE NATIONAL PARK

CITY           SKY/WX    TMP DP  RH WIND       PRES   REMARKS
LK YELLOWSTONE   N/A     39  38  96 VRB3      30.42R
6HR MIN TEMP:  37; 6HR MAX TEMP:  40; 6HR PCP:  0.02;

W YELLOWSTONE  NOT AVBL

$$
WYZ002>013-054>058-071-098>099-221900-
NORTHERN WYOMING

CITY           SKY/WX    TMP DP  RH WIND       PRES   REMARKS
JACKSON        LGT RAIN  49  41  74 W7        30.39S
CODY           FAIR      56  38  50 W16       30.23R
GREYBULL       PTSUNNY   44  33  65 SE3       30.22S
6HR MIN TEMP:  30; 6HR MAX TEMP:  44;

WORLAND        FAIR      40  35  83 CALM      30.22S
6HR MIN TEMP:  28; 6HR MAX TEMP:  40;

SHERIDAN       CLOUDY    64  42  44 W12G18    30.10F
6HR MIN TEMP:  32; 6HR MAX TEMP:  66;

BUFFALO        FAIR      65  34  31 SW6       30.14F
6HR MIN TEMP:  44; 6HR MAX TEMP:  65;

GILLETTE       FAIR      65  34  31 SW13      30.10R
6HR MIN TEMP:  47; 6HR MAX TEMP:  65;

HULETT         CLOUDY    55  34  44 SW8       30.10S
NEWCASTLE      FAIR      50  28  43 CALM      30.14S

$$
WYZ014>020-022>026-101>103-221900-
CENTRAL WYOMING

CITY           SKY/WX    TMP DP  RH WIND       PRES   REMARKS
BIG PINEY      CLOUDY    39  38  96 CALM      30.44R
6HR MIN TEMP:  34; 6HR MAX TEMP:  39; 6HR PCP: TRACE;

PINEDALE       CLOUDY    36  36 100 CALM      30.45F FOG
DUBOIS         FAIR      48  36  61 NW16G32   30.33F
LANDER         FAIR      50  36  58 CALM      30.27S
6HR MIN TEMP:  35; 6HR MAX TEMP:  50;

RIVERTON       FAIR      47  34  60 W8        30.28R
6HR MIN TEMP:  38; 6HR MAX TEMP:  50;

CASPER         FAIR      56  37  49 SW23G30   30.24F
6HR MIN TEMP:  45; 6HR MAX TEMP:  57;

DOUGLAS        FAIR      62  38  40 W29G38    30.18F
6HR MIN TEMP:  29; 6HR MAX TEMP:  63;


$$
WYZ021-027>030-104>119-221900-
SOUTHERN WYOMING

CITY           SKY/WX    TMP DP  RH WIND       PRES   REMARKS
EVANSTON       FAIR      50  41  71 SW16      30.50R
6HR MIN TEMP:  38; 6HR MAX TEMP:  51;

KEMMERER       CLOUDY    43  37  81 SW5       30.49R
FORT BRIDGER   FAIR      53  42  65 W15G24    30.51S
ROCK SPRINGS   CLOUDY    50  39  66 SW16      30.46S
6HR MIN TEMP:  40; 6HR MAX TEMP:  50;

DIXON          CLOUDY    47  36  64 W3        30.49F
RAWLINS        LGT RAIN  48  38  68 W35G41    30.35F
6HR MIN TEMP:  41; 6HR MAX TEMP:  50; 6HR PCP: TRACE;

SARATOGA       CLOUDY    50  37  62 W23       30.42S
LARAMIE        FAIR      52  38  58 W26G32    30.35F
6HR MIN TEMP:  38; 6HR MAX TEMP:  53;

CHEYENNE       FAIR      58  38  47 W29G36    30.26S
6HR MIN TEMP:  47; 6HR MAX TEMP:  58;

TORRINGTON     FAIR      65  40  39 W12G28    30.15F
6HR MIN TEMP:  26; 6HR MAX TEMP:  66;

PINE BLUFFS    FAIR      61  36  39 NW28G37   30.21F

$$




USA.gov is the U.S. government's official web portal to all federal, state and local government web resources and services.